Regional Weather Roundup
Issued by NWS

Home | Current Version | Previous Version | Graphics & Text | Print | Product List | Glossary On
Versions: 1 2 3 4 5 6 7 8 9 10 11 12 13 14 15 16 17 18 19 20 21 22 23 24 25 26 27 28 29 30 31 32 33 34 35 36 37 38 39 40 41 42 43 44 45 46 47 48 49 50
731
ASUS43 KDTX 030701
RWRMI
MICHIGAN HOURLY REGIONAL WEATHER ROUNDUP
NATIONAL WEATHER SERVICE DETROIT/PONTIAC MI
200 AM EST SAT DEC 03 2016

NOTE: "FAIR" INDICATES FEW OR NO CLOUDS BELOW 12,000 FEET WITH NO
SIGNIFICANT WEATHER AND/OR OBSTRUCTION TO VISIBILITY.

MIZ047>049-052>055-059>063-066>070-074>076-081>083-030800-
SOUTHEAST LOWER MICHIGAN

CITY           SKY/WX    TMP DP  RH WIND       PRES   REMARKS
ADRIAN         CLOUDY    35  29  78 NW6       30.27S WCI  30
ALMA           MOCLDY    32  29  88 W7        30.25S WCI  26
ANN ARBOR      PTCLDY    32  27  81 W6        30.24S WCI  26
BAD AXE        CLOUDY    37  33  85 W6        30.20R WCI  33
CARO           CLOUDY    35  32  89 W8        30.21S WCI  28
DETROIT CITY   CLOUDY    35  28  75 W6        30.25R WCI  30
DETROIT        PTCLDY    34  27  75 W7        30.26R WCI  28
FLINT          CLOUDY    34  29  82 W9        30.24S WCI  27
GROSSE ILE     CLOUDY    35  28  76 W6        30.24S WCI  30
HILLSDALE      CLOUDY    32  30  93 NW5       30.25R WCI  27
HOWELL         CLOUDY    33  28  81 W6        30.23S WCI  27

CITY           SKY/WX    TMP DP  RH WIND       PRES   REMARKS
JACKSON        CLOUDY    35  27  72 NW7       30.25R WCI  29
LAMBERTVILLE   CLOUDY    37  29  72 W6        30.27S WCI  33
LANSING        CLOUDY    35  28  75 W5        30.26R WCI  31
LAPEER         NOT AVBL
MASON          CLOUDY    34  30  84 NW6       30.25R WCI  29
MONROE         CLOUDY    35  30  80 W6        30.25R WCI  30
MT. CLEMENS    CLOUDY    36  30  77 W13       30.21R WCI  28
PONTIAC        CLOUDY    33  28  81 W10       30.22R WCI  25
PORT HOPE        N/A     40  33  76 W10       30.16R WCI  33
PORT HURON     CLOUDY    36  32  87 W6        30.21S WCI  31
TRI CITIES     PTCLDY    32  30  92 W9        30.24R WCI  24
MIDLAND        FAIR      34  29  83 W6        30.22S WCI  29
TROY           CLOUDY    35  28  75 W6        30.25S WCI  30
SAGINAW HB     MOCLDY    34  30  86 W8        30.23S WCI  27
$$
MIZ043>046-050>051-056>058-064>065-071>073-077>080-030800-
SOUTHWEST LOWER MICHIGAN

CITY           SKY/WX    TMP DP  RH WIND       PRES   REMARKS
BATTLE CREEK   CLOUDY    35  30  82 W3        30.27R
BENTON HARBOR  CLOUDY    37  27  67 W7        30.29S WCI  32
BIG RAPIDS     CLOUDY    36  29  78 W5        30.23R WCI  32
COLDWATER      CLOUDY    35  28  73 NW3       30.27R
FREMONT        CLOUDY    35  27  70 W3        30.26R
HOLLAND        CLOUDY    37  28  70 NW6       30.28S WCI  32
GRAND RAPIDS   CLOUDY    36  28  73 W6        30.27S WCI  31
IONIA          CLOUDY    35  28  75 W8        30.25S WCI  28
KALAMAZOO      CLOUDY    36  28  73 CALM      30.27S
LUDINGTON      CLOUDY    37  31  81 W6        30.26R WCI  32
MARSHALL       CLOUDY    35  31  87 CALM      30.26S
MOUNT PLEASANT MOCLDY    33  30  88 W6        30.23R WCI  27
MUSKEGON       CLOUDY    37  29  72 W8        30.28S WCI  31
SOUTH HAVEN    CLOUDY    39  30  70 NW5       30.28S
$$
MIZ016>042-030800-
NORTHERN LOWER MICHIGAN

CITY           SKY/WX    TMP DP  RH WIND       PRES   REMARKS
ALPENA         CLOUDY    37  31  78 W6        30.17S WCI  32
BEAVER ISLAND  CLOUDY    37  32  83 NW6       30.20S WCI  32
BELLAIRE       MIX PCPN  37  35  94 CALM      30.21S
CADILLAC       CLOUDY    34  32  93 W7        30.20R WCI  28
CHARLEVOIX     CLOUDY    38  33  80 NW10      30.23R WCI  32
FRANKFORT      RAIN      38  35  90 NW5       30.23S WCI  35
GAYLORD        CLOUDY    35  32  88 W6        30.17R WCI  30
GRAYLING       CLOUDY    36  35  96 W5        30.19R WCI  32
HARBOR SPRINGS CLOUDY    37  32  84 CALM      30.19S
MANISTEE       CLOUDY    38  32  79 W9        30.24R WCI  31
OSCODA         CLOUDY    34  32  92 MISG      30.18R
PELLSTON       LGT RAIN  36  33  89 NW7       30.18F WCI  30
ROGERS CITY    CLOUDY    37  32  82 W6        30.17S WCI  32
$$
MIZ007>008-015-030800-
EASTERN UPPER MICHIGAN

CITY           SKY/WX    TMP DP  RH WIND       PRES   REMARKS
KINROSS        CLOUDY    33  32  96 W7        30.16R WCI  27
MACKINAC ISLAN MOCLDY    34  32  92 NW8G16    30.17S WCI  27
NEWBERRY       CLOUDY    33  32  98 W7        30.18S WCI  26
S. S. MARIE    CLOUDY    34  32  92 W5        30.15R WCI  30
MUNISING         N/A     38  31  76 N10       30.20S WCI  31
$$
MIZ004>006-011>014-085-030800-
CENTRAL UPPER MICHIGAN

CITY           SKY/WX    TMP DP  RH WIND       PRES   REMARKS
MANISTIQUE     CLOUDY    34  32  93 W7        30.20S WCI  28
ESCANABA       CLOUDY    34  29  82 W5        30.24R WCI  30
MENOMINEE      CLOUDY    34  28  79 VRB5      30.26S WCI  30
SAWYER-GWINN   CLOUDY    31  28  90 CALM      30.20S
$$
MIZ001>003-009>011-084-030800-
WESTERN UPPER MICHIGAN

CITY           SKY/WX    TMP DP  RH WIND       PRES   REMARKS
IRON MOUNTAIN  CLOUDY    32  27  81 W3        30.22R
HOUGHTON       LGT SNOW  31  29  92 CALM      30.20S FOG
COPPER HARBOR    N/A     35  28  75 N12       30.21S WCI  27
IRONWOOD       CLOUDY    28  26  92 SW6       30.25S WCI  22
$$

ABBREVIATIONS USED IN REMARKS
   TC - TEMPERATURE IN CELSIUS
  WCI - WIND CHILL INDEX
   HX - HEAT INDEX
  VSB - VISIBILITY





USA.gov is the U.S. government's official web portal to all federal, state and local government web resources and services.